TimePST,TemperatureF,Dew PointF,Humidity,Sea Level PressureIn,VisibilityMPH,Wind Direction,Wind SpeedMPH,Gust SpeedMPH,PrecipitationIn,Events,Conditions,WindDirDegrees,DateUTC
12:52 AM,-8.0,-13.0,79,30.63,-9999.0,SSW,3.5,-,N/A,,Unknown,200,2013-01-04 08:52:00
1:52 AM,-7.1,-11.0,83,30.63,-9999.0,South,3.5,-,N/A,,Unknown,180,2013-01-04 09:52:00
2:52 AM,-9.0,-14.1,79,30.64,-9999.0,Calm,Calm,-,N/A,,Unknown,0,2013-01-04 10:52:00
3:52 AM,-8.0,-11.0,86,30.64,-9999.0,Calm,Calm,-,N/A,,Unknown,0,2013-01-04 11:52:00
4:52 AM,-9.0,-14.1,79,30.67,-9999.0,SSE,4.6,-,N/A,,Unknown,160,2013-01-04 12:52:00
5:52 AM,-9.0,-13.0,83,30.69,-9999.0,Calm,Calm,-,N/A,,Unknown,0,2013-01-04 13:52:00
6:52 AM,-9.0,-13.0,83,30.71,-9999.0,Calm,Calm,-,N/A,,Unknown,0,2013-01-04 14:52:00
7:52 AM,-9.0,-13.0,83,30.72,-9999.0,ESE,3.5,-,N/A,,Unknown,120,2013-01-04 15:52:00
8:52 AM,-2.9,-4.0,95,30.71,-9999.0,Calm,Calm,-,N/A,,Unknown,0,2013-01-04 16:52:00
9:52 AM,5.0,1.9,87,30.69,-9999.0,Calm,Calm,-,N/A,,Unknown,0,2013-01-04 17:52:00
10:52 AM,5.0,-0.9,76,30.66,-9999.0,Calm,Calm,-,N/A,,Unknown,0,2013-01-04 18:52:00
11:52 AM,8.1,1.0,73,30.63,-9999.0,Calm,Calm,-,N/A,,Unknown,0,2013-01-04 19:52:00
12:52 PM,10.0,1.9,70,30.61,-9999.0,Calm,Calm,-,N/A,,Unknown,0,2013-01-04 20:52:00
1:52 PM,12.9,3.9,67,30.57,-9999.0,NNE,3.5,-,N/A,,Unknown,30,2013-01-04 21:52:00
2:52 PM,10.0,1.9,70,30.58,-9999.0,NE,5.8,-,N/A,,Unknown,50,2013-01-04 22:52:00
3:52 PM,10.0,1.9,70,30.58,-9999.0,NNE,6.9,-,N/A,,Unknown,30,2013-01-04 23:52:00
4:52 PM,1.9,-2.9,80,30.61,-9999.0,NE,6.9,-,N/A,,Unknown,40,2013-01-05 00:52:00
5:52 PM,1.0,-4.0,79,30.64,-9999.0,NE,4.6,-,N/A,,Unknown,50,2013-01-05 01:52:00
6:52 PM,-2.9,-8.0,79,30.64,-9999.0,SSE,6.9,-,N/A,,Unknown,160,2013-01-05 02:52:00
7:52 PM,-0.9,-6.0,79,30.63,-9999.0,SSE,8.1,-,N/A,,Unknown,160,2013-01-05 03:52:00
8:52 PM,-4.0,-9.0,79,30.61,-9999.0,Calm,Calm,-,N/A,,Unknown,0,2013-01-05 04:52:00
9:52 PM,-5.1,-9.9,80,30.59,-9999.0,Calm,Calm,-,N/A,,Unknown,0,2013-01-05 05:52:00
10:52 PM,-6.0,-11.0,79,30.61,-9999.0,SSE,3.5,-,N/A,,Unknown,150,2013-01-05 06:52:00
11:52 PM,-6.0,-9.0,87,30.59,-9999.0,SW,4.6,-,N/A,,Unknown,220,2013-01-05 07:52:00